Regional Weather Roundup
Issued by NWS

Home | Current Version | Previous Version | Graphics & Text | Print | Product List | Glossary On
Versions: 1 2 3 4 5 6 7 8 9 10 11 12 13 14 15 16 17 18 19 20 21 22 23 24 25 26 27 28 29 30 31 32 33 34 35 36 37 38 39 40 41 42 43 44 45 46 47 48 49 50
000
ASUS43 KLOT 270500
RWRIL

ILLINOIS REGIONAL WEATHER ROUNDUP
NATIONAL WEATHER SERVICE CHICAGO/ROMEOVILLE IL
1200 AM CDT WED AUG 27 2014

NOTE: "FAIR" INDICATES FEW OR NO CLOUDS BELOW 12,000 FEET WITH NO
SIGNIFICANT WEATHER AND/OR OBSTRUCTIONS TO VISIBILITY.

* THESE STATIONS ARE NOT UNDER NWS QUALITY CONTROL. THEY ALSO MAY NOT
  REPORT WEATHER SUCH AS PRECIPITATION OR FOG.

ILZ001-002-007-009-015-016-024-270600-
NORTHWEST ILLINOIS

CITY           SKY/WX    TMP DP  RH WIND       PRES   REMARKS
MOLINE         PTCLDY    70  64  81 CALM      30.11R
STERLING*      PTCLDY    70  64  83 NE3       30.12S
$$

ILZ003-004-008-010-011-017-018-270600-
NORTH CENTRAL ILLINOIS

CITY           SKY/WX    TMP DP  RH WIND       PRES   REMARKS
ROCKFORD       PTCLDY    69  63  81 NE3       30.13R
FREEPORT*      PTCLDY    64  62  94 CALM      30.15S
ROCHELLE*      PTCLDY    67  64  89 E3        30.12F
$$

ILZ005-006-012>014-019>023-270600-
NORTHEAST ILLINOIS

CITY           SKY/WX    TMP DP  RH WIND       PRES   REMARKS
CHICAGO-OHARE  CLOUDY    72  64  76 N3        30.12R
CHICAGO-MIDWAY CLOUDY    74  68  81 E3        30.11S
AURORA         MOCLDY    70  64  81 NE6       30.12S
WAUKEGAN       PTCLDY    65  63  93 CALM      30.12R
DUPAGE AIRPORT MOCLDY    70  64  81 N6        30.12R
WHEELING       MOCLDY    70  66  87 CALM      30.13R
NORTHERLY ISL    N/A     71  67  87 NE3         N/A
$$

LMZ740>746-270600-
SOUTHERN LAKE MICHIGAN

STATION/POSITION SKY/WX   TEMP    WIND        PRES    VSBY  WAVE
                          AIR SEA DIR/SP/G                  HT/PER
                          (F)     (DEG/KT/KT) (MB)    (MI)  (FT/S)
SOUTHERN BUOY              69 69  340/  2/  4 1019.4R         1
WAUKEGAN HARBOR            69      CALM  /  3   N/A
HARRISON CRIB              70      40/  2/  3   N/A
BURNHAM HARBOR             71      60/  3/  5   N/A
CALUMET HARBOR             71      10/  4/  5 1018.4R
MICHIGAN CITY              70      40/  2/  3   N/A
MICHIGAN CITY 6N           71 73   30/  4/  6   N/A           1/ 4
ST. JOSEPH                 70 73   60/  4/  6   N/A           1/ 3
$$

ILZ025>027-034>036-040-047-049-050-058-095>099-270600-
WEST-CENTRAL ILLINOIS

CITY           SKY/WX    TMP DP  RH WIND       PRES   REMARKS
QUINCY         CLEAR     73  70  90 NE3       30.11R
MACOMB*        MOCLDY    70  69  96 CALM      30.13R
$$

ILZ028>032-037-038-041>044-048-051>054-059>061-270600-
CENTRAL ILLINOIS

CITY           SKY/WX    TMP DP  RH WIND       PRES   REMARKS
DECATUR        CLOUDY    71  66  84 SW6       30.10R
PEORIA         PTCLDY    79  72  79 SW3       30.10S HX  82
SPRINGFIELD    CLOUDY    75  67  76 SW12      30.09S
TAYLORVILLE    NOT AVBL
$$

ILZ033-039-045-046-055>057-062-063-270600-
EAST-CENTRAL ILLINOIS

CITY           SKY/WX    TMP DP  RH WIND       PRES   REMARKS
CHAMPAIGN      CLOUDY    72  66  81 CALM      30.11R
MATTOON        CLOUDY    75  68  78 SW6       30.08F
$$

ILZ079-100>102-270600-
SOUTHWEST ILLINOIS

CITY           SKY/WX    TMP DP  RH WIND       PRES   REMARKS
BELLEVILLE     MOCLDY    78  72  80 NW13      30.12R HX  81
$$

ILZ064>066-069>071-074>076-080>082-084>086-088>090-092>094-270600-
SOUTH-CENTRAL ILLINOIS

CITY           SKY/WX    TMP DP  RH WIND       PRES   REMARKS
CARBONDALE     CLEAR     76  74  93 CALM      30.09R FOG
MT. VERNON     PTCLDY    73  70  88 CALM      30.11R
SALEM*         PTCLDY    78  75  92 N3        30.12R
$$

ILZ067-068-072-073-078-083-087-091-270600-
SOUTHEAST ILLINOIS

CITY           SKY/WX    TMP DP  RH WIND       PRES   REMARKS
LAWRENCEVILLE  MOCLDY    74  72  93 CALM      30.09R
HARRISBURG*    CLEAR     74  74  98 CALM      30.09R FOG
ROBINSON*      CLOUDY    72  71  97 CALM      30.10R
$$

ABBREVIATIONS USED IN REMARKS
   TC - TEMPERATURE IN CELSIUS
  WCI - WIND CHILL INDEX
   HX - HEAT INDEX
  VSB - VISIBILITY
$$



USA.gov is the U.S. government's official web portal to all federal, state and local government web resources and services.